sat.trackr.live / text

‹ back to catalog

COSMOS 2455

NORAD 36095 · 2009-063A

PAYLOAD ACTIVE UNKNOWN

§ Identity

Operator
Country
CIS
Launch date
2009-11-20
Launch site
PLMSC
Launch vehicle
Mass (kg)
RCS (m²)
12.18

External: N2YO · Heavens-Above · Gunter

§ Orbital elements

Epoch: 2026-09-15T18:41:11.976576Z

Period
103.07 min
Inclination
67.1492°
Eccentricity
0.0005500
Mean motion
13.97057371 rev/d
Perigee alt
900.0 km
Apogee alt
908.0 km
Semi-major
7,282.1 km
B*
2.1784e-5
RAAN
32.5791°
Arg perigee
296.6108°
Mean anomaly
63.4413°
Rev number
85,778

§ Raw data

COSMOS 24551 36095U 09063A   26258.77861084 -.00000045  00000+0  21784-4 0  99902 36095  67.1492  32.5791 0005500 296.6108  63.4413 13.97057371857782

JSON: /api/v1/satellites/36095 · /tle

For live sub-satellite position, see the globe view (requires WebGL).

§ Visibility from observer

Set your observer location to see the next 7 days of passes ≥ 10°. The values pass through the URL so the page stays shareable.

No JS? Fill the form by hand. The geolocation button needs JavaScript.